Total_Precipitation_Accumulation
0.00 0.00 0.00 0.00 0.00 0.00 0.00 0.03 0.06 0.08 0.09 0.17 0.24 0.29 0.34 0.35 0.29 0.29 0.34 0.28 0.15 0.07 0.02 0.03 0.03 0.01 0.05 0.09 0.06 0.09 0.05 0.02 0.00 0.00 0.00 0.00 0.00 0.00 0.00 0.00 0.00 0.00 0.00
0.00 0.00 0.00 0.00 0.00 0.00 0.01 0.03 0.04 0.06 0.11 0.18 0.25 0.34 0.43 0.45 0.41 0.37 0.34 0.29 0.22 0.13 0.04 0.03 0.04 0.03 0.01 0.03 0.06 0.10 0.05 0.02 0.00 0.00 0.00 0.00 0.00 0.00 0.00 0.00 0.00 0.00 0.00
0.00 0.00 0.00 0.00 0.00 0.00 0.00 0.02 0.04 0.09 0.15 0.21 0.26 0.25 0.29 0.27 0.27 0.25 0.23 0.24 0.21 0.15 0.07 0.05 0.07 0.07 0.03 0.02 0.03 0.04 0.02 0.01 0.00 0.00 0.00 0.00 0.00 0.00 0.00 0.00 0.00 0.00 0.00
0.00 0.00 0.00 0.00 0.00 0.00 0.00 0.00 0.02 0.04 0.08 0.13 0.14 0.11 0.10 0.09 0.11 0.14 0.15 0.18 0.22 0.21 0.18 0.12 0.12 0.12 0.07 0.03 0.04 0.04 0.02 0.00 0.00 0.00 0.00 0.00 0.00 0.00 0.00 0.00 0.00 0.00 0.00
0.00 0.00 0.00 0.00 0.00 0.00 0.00 0.00 0.01 0.01 0.02 0.03 0.04 0.05 0.03 0.01 0.04 0.10 0.13 0.16 0.26 0.31 0.30 0.25 0.23 0.20 0.13 0.06 0.06 0.07 0.05 0.01 0.00 0.00 0.00 0.00 0.00 0.00 0.00 0.00 0.00 0.00 0.00
0.00 0.00 0.00 0.00 0.00 0.00 0.00 0.00 0.00 0.00 0.00 0.01 0.01 0.01 0.01 0.01 0.02 0.06 0.12 0.21 0.31 0.44 0.37 0.27 0.24 0.21 0.18 0.13 0.10 0.09 0.07 0.05 0.05 0.04 0.01 0.00 0.00 0.00 0.00 0.00 0.00 0.00 0.00
0.00 0.00 0.00 0.00 0.00 0.00 0.00 0.00 0.00 0.00 0.00 0.00 0.00 0.00 0.01 0.01 0.02 0.05 0.12 0.28 0.35 0.49 0.54 0.39 0.25 0.18 0.16 0.14 0.13 0.10 0.07 0.06 0.06 0.05 0.04 0.03 0.02 0.00 0.00 0.00 0.00 0.00 0.00
0.00 0.00 0.00 0.00 0.00 0.00 0.00 0.00 0.00 0.00 0.00 0.00 0.00 0.00 0.00 0.01 0.02 0.04 0.05 0.21 0.36 0.45 0.56 0.50 0.31 0.18 0.13 0.11 0.10 0.10 0.07 0.04 0.03 0.03 0.04 0.05 0.05 0.02 0.01 0.00 0.00 0.00 0.00
0.00 0.00 0.00 0.00 0.00 0.00 0.00 0.00 0.00 0.00 0.00 0.00 0.00 0.00 0.00 0.01 0.02 0.02 0.01 0.05 0.17 0.24 0.31 0.32 0.26 0.16 0.12 0.08 0.05 0.04 0.04 0.03 0.02 0.02 0.02 0.02 0.03 0.04 0.02 0.00 0.00 0.00 0.00
0.00 0.00 0.00 0.00 0.00 0.00 0.00 0.00 0.00 0.00 0.00 0.00 0.00 0.00 0.00 0.00 0.01 0.01 0.00 0.01 0.04 0.07 0.10 0.12 0.12 0.12 0.10 0.09 0.05 0.03 0.04 0.03 0.02 0.01 0.01 0.01 0.01 0.02 0.03 0.01 0.01 0.00 0.00
0.00 0.00 0.00 0.00 0.00 0.00 0.00 0.00 0.00 0.00 0.00 0.00 0.00 0.00 0.00 0.00 0.00 0.01 0.01 0.00 0.02 0.02 0.03 0.04 0.05 0.07 0.07 0.10 0.12 0.10 0.06 0.03 0.02 0.02 0.02 0.02 0.01 0.01 0.02 0.03 0.02 0.02 0.01
0.00 0.00 0.00 0.00 0.00 0.00 0.00 0.00 0.00 0.00 0.00 0.00 0.00 0.00 0.00 0.00 0.00 0.01 0.02 0.02 0.02 0.01 0.01 0.02 0.03 0.05 0.06 0.06 0.09 0.10 0.07 0.05 0.05 0.04 0.02 0.02 0.02 0.02 0.02 0.03 0.04 0.04 0.04
0.00 0.00 0.00 0.00 0.00 0.00 0.00 0.00 0.00 0.00 0.00 0.00 0.00 0.00 0.00 0.00 0.00 0.01 0.03 0.03 0.02 0.01 0.01 0.02 0.03 0.04 0.04 0.05 0.07 0.10 0.10 0.09 0.07 0.06 0.04 0.03 0.02 0.01 0.03 0.06 0.06 0.07 0.07
0.01 0.00 0.00 0.00 0.00 0.00 0.00 0.00 0.00 0.00 0.00 0.00 0.00 0.00 0.01 0.01 0.00 0.01 0.01 0.03 0.02 0.01 0.00 0.01 0.02 0.02 0.02 0.03 0.07 0.12 0.14 0.14 0.11 0.08 0.05 0.03 0.02 0.02 0.04 0.08 0.12 0.12 0.09
0.01 0.00 0.00 0.00 0.00 0.00 0.00 0.00 0.01 0.00 0.01 0.01 0.01 0.00 0.01 0.01 0.01 0.01 0.01 0.01 0.02 0.01 0.01 0.01 0.01 0.01 0.01 0.03 0.04 0.06 0.09 0.12 0.13 0.11 0.06 0.04 0.05 0.05 0.05 0.06 0.09 0.13 0.10
0.00 0.00 0.00 0.00 0.00 0.00 0.00 0.01 0.02 0.02 0.02 0.02 0.02 0.02 0.01 0.01 0.01 0.01 0.02 0.02 0.02 0.02 0.01 0.01 0.01 0.01 0.01 0.04 0.08 0.09 0.07 0.06 0.06 0.04 0.04 0.07 0.10 0.08 0.04 0.04 0.06 0.08 0.08
0.00 0.00 0.00 0.00 0.00 0.00 0.02 0.04 0.06 0.06 0.07 0.09 0.09 0.06 0.04 0.03 0.02 0.03 0.05 0.06 0.06 0.04 0.03 0.02 0.01 0.01 0.02 0.04 0.07 0.08 0.07 0.07 0.05 0.04 0.04 0.07 0.09 0.11 0.06 0.03 0.03 0.04 0.04
0.00 0.00 0.00 0.00 0.01 0.02 0.04 0.08 0.11 0.10 0.11 0.18 0.20 0.14 0.07 0.08 0.08 0.08 0.08 0.10 0.08 0.06 0.06 0.04 0.02 0.00 0.01 0.02 0.03 0.03 0.05 0.08 0.10 0.08 0.07 0.08 0.06 0.06 0.07 0.07 0.05 0.04 0.04
0.00 0.00 0.00 0.00 0.00 0.00 0.01 0.02 0.05 0.08 0.09 0.11 0.17 0.17 0.14 0.15 0.17 0.16 0.16 0.13 0.09 0.08 0.05 0.03 0.01 0.00 0.00 0.00 0.01 0.02 0.04 0.06 0.10 0.09 0.06 0.04 0.03 0.04 0.05 0.10 0.13 0.08 0.06
0.00 0.00 0.00 0.00 0.00 0.00 0.00 0.00 0.01 0.02 0.05 0.06 0.10 0.15 0.16 0.18 0.21 0.24 0.26 0.18 0.13 0.12 0.06 0.02 0.01 0.00 0.00 0.00 0.01 0.01 0.02 0.02 0.04 0.07 0.09 0.09 0.06 0.06 0.06 0.06 0.10 0.12 0.12
0.00 0.00 0.00 0.00 0.00 0.00 0.00 0.00 0.00 0.01 0.01 0.02 0.03 0.06 0.10 0.15 0.21 0.24 0.22 0.17 0.14 0.10 0.05 0.02 0.00 0.00 0.00 0.00 0.01 0.01 0.00 0.01 0.02 0.06 0.13 0.16 0.11 0.08 0.07 0.06 0.06 0.07 0.12
0.00 0.00 0.00 0.00 0.00 0.00 0.00 0.00 0.00 0.00 0.00 0.00 0.01 0.02 0.04 0.06 0.11 0.15 0.17 0.16 0.15 0.10 0.04 0.02 0.01 0.00 0.00 0.00 0.01 0.01 0.00 0.00 0.01 0.02 0.05 0.07 0.08 0.07 0.06 0.05 0.04 0.02 0.02
0.00 0.00 0.00 0.00 0.00 0.00 0.00 0.00 0.00 0.00 0.00 0.00 0.00 0.00 0.00 0.01 0.04 0.10 0.13 0.14 0.16 0.14 0.09 0.05 0.02 0.01 0.00 0.00 0.01 0.03 0.02 0.01 0.00 0.01 0.01 0.02 0.02 0.02 0.02 0.03 0.03 0.02 0.01
0.00 0.00 0.00 0.00 0.00 0.00 0.00 0.00 0.00 0.00 0.00 0.00 0.00 0.00 0.00 0.00 0.01 0.03 0.09 0.15 0.14 0.08 0.03 0.02 0.01 0.00 0.01 0.00 0.00 0.02 0.03 0.02 0.01 0.00 0.00 0.00 0.01 0.01 0.01 0.01 0.01 0.01 0.00
0.00 0.00 0.00 0.00 0.00 0.00 0.00 0.00 0.00 0.00 0.00 0.00 0.00 0.00 0.00 0.00 0.00 0.01 0.05 0.09 0.09 0.04 0.01 0.00 0.00 0.00 0.01 0.01 0.01 0.01 0.01 0.02 0.01 0.00 0.00 0.00 0.00 0.00 0.00 0.00 0.00 0.00 0.00
0.00 0.00 0.00 0.00 0.00 0.00 0.00 0.00 0.00 0.00 0.00 0.00 0.00 0.00 0.00 0.00 0.00 0.00 0.02 0.03 0.03 0.02 0.01 0.01 0.02 0.03 0.03 0.04 0.03 0.02 0.01 0.01 0.01 0.00 0.00 0.00 0.00 0.00 0.00 0.00 0.00 0.00 0.00